Date,TemperatureHighF,TemperatureAvgF,TemperatureLowF,DewpointHighF,DewpointAvgF,DewpointLowF,HumidityHigh,HumidityAvg,HumidityLow,PressureMaxIn,PressureMinIn,WindSpeedMaxMPH,WindSpeedAvgMPH,GustSpeedMaxMPH,PrecipitationSumIn
2013-1-1,21.9,11.5,3.1,9.9,4.0,-2.7,79,72,58,30.78,30.67,10,1,10,0.00
2013-1-2,19.7,7.5,-0.9,9.3,0.5,-6.4,80,73,61,30.88,30.74,24,2,24,0.00
2013-1-3,24.0,8.6,-2.5,6.6,-1.8,-9.8,77,63,44,30.90,30.80,10,0,10,0.00
2013-1-4,30.3,12.8,1.4,9.9,1.0,-6.2,76,59,37,30.82,30.65,7,0,7,0.00
2013-1-5,35.1,17.9,4.9,12.4,5.3,-4.1,71,58,35,30.79,30.58,10,0,10,0.00
2013-1-6,37.4,22.1,8.9,15.4,7.8,2.4,78,56,33,30.58,30.31,9,1,9,0.00
2013-1-7,34.8,24.2,12.2,21.4,8.1,-1.0,73,50,32,30.42,30.32,14,1,14,0.00
2013-1-8,35.4,31.7,28.7,26.8,24.0,20.4,78,73,65,30.52,30.35,15,2,15,0.00
2013-1-9,49.2,33.2,17.8,22.8,17.8,12.4,81,56,29,30.54,29.98,29,5,29,0.00
2013-1-10,41.4,32.4,17.7,26.7,19.0,12.8,85,60,37,29.99,29.45,33,12,33,0.00
2013-1-11,17.6,13.6,9.6,12.8,8.2,4.7,81,79,76,30.24,29.61,22,4,22,0.00
2013-1-12,14.4,5.1,-0.4,5.8,-2.5,-10.3,80,70,56,30.50,30.24,16,2,16,0.01
2013-1-13,9.9,-0.7,-9.6,-1.8,-9.0,-17.2,75,67,54,30.70,30.50,15,2,15,0.00
2013-1-14,8.1,-2.4,-12.6,-4.1,-11.4,-21.4,76,65,53,30.93,30.70,14,2,14,0.00
2013-1-15,17.5,9.5,2.5,8.3,2.2,-4.6,79,72,62,30.99,30.91,19,3,19,0.00
2013-1-16,22.7,13.5,5.5,13.1,7.0,-0.2,82,75,63,31.04,30.90,15,1,15,0.00
2013-1-17,31.2,15.2,1.8,15.6,7.8,-3.0,82,73,51,31.02,30.83,5,0,5,0.01
2013-1-18,35.6,21.5,11.7,17.0,10.4,4.3,82,63,37,30.84,30.65,6,0,6,0.00
2013-1-19,38.4,22.7,13.0,16.9,10.2,3.6,69,59,37,30.78,30.65,9,0,9,0.00
2013-1-20,36.8,22.4,11.6,13.8,7.3,0.5,65,53,33,30.71,30.61,12,0,12,0.00
2013-1-21,40.2,24.5,13.2,16.4,9.0,1.1,65,52,32,30.72,30.58,11,0,11,0.00
2013-1-22,47.4,28.3,15.5,18.0,8.8,2.9,60,45,28,30.64,30.49,18,2,18,0.00
2013-1-23,50.6,36.8,23.7,19.8,13.8,7.6,51,39,24,30.53,30.32,19,3,19,0.00
2013-1-24,43.6,37.7,34.4,33.3,28.9,17.2,85,72,35,30.36,30.22,22,4,22,0.08
2013-1-25,41.0,36.2,32.6,34.0,31.1,26.8,88,82,73,30.37,30.22,7,0,7,0.00
2013-1-26,43.4,36.9,31.1,33.6,29.4,24.3,89,74,60,30.22,29.88,12,1,12,0.00
2013-1-27,39.6,32.7,23.2,33.1,27.4,19.4,92,81,64,29.93,29.71,45,6,45,0.03
2013-1-28,23.2,19.2,15.7,19.4,12.8,6.5,85,76,52,30.20,29.92,16,2,16,0.02
2013-1-29,25.6,19.2,14.6,17.4,12.0,7.5,83,73,61,30.44,30.12,23,2,23,0.07
2013-1-30,32.2,26.0,19.4,26.5,20.7,12.0,84,80,71,30.46,30.40,25,5,25,0.00
2013-1-31,34.7,32.0,29.4,26.1,23.9,22.5,84,72,62,30.51,30.41,23,4,23,0.07
2013-2-1,39.4,31.4,22.5,26.3,22.4,13.6,81,69,55,30.58,30.39,21,4,21,0.02
2013-2-2,40.7,26.9,16.0,20.8,14.5,7.7,72,60,39,30.72,30.56,20,3,20,0.00
2013-2-3,43.5,29.4,21.3,17.6,14.7,10.3,71,55,32,30.57,30.30,14,2,14,0.00
2013-2-4,40.7,27.2,16.7,19.4,13.0,6.8,67,55,41,30.43,30.33,17,3,17,0.00
2013-2-5,46.8,35.0,21.8,22.4,17.0,11.1,66,49,30,30.39,30.00,17,3,17,0.00
2013-2-6,42.1,32.4,21.3,21.8,17.5,8.7,66,54,39,30.30,29.97,20,4,20,0.00
2013-2-7,41.9,28.2,12.4,16.8,8.4,-2.4,58,44,31,30.37,30.10,22,8,22,0.00
2013-2-8,38.2,31.5,21.9,24.8,20.2,15.8,86,64,46,30.11,29.67,32,9,32,0.00
2013-2-9,28.8,23.1,16.4,20.7,17.2,10.5,92,78,60,30.02,29.77,15,2,15,0.03
2013-2-10,27.5,19.9,12.8,19.3,12.9,5.5,84,74,57,30.25,30.02,16,3,16,0.08
2013-2-11,23.9,14.0,4.6,12.4,4.6,-2.3,77,66,50,30.57,30.25,17,3,17,0.00
2013-2-12,25.5,17.2,6.1,17.9,9.0,-1.6,77,70,63,30.70,30.57,14,2,14,0.00
2013-2-13,33.9,27.0,19.0,23.0,19.4,13.8,88,73,63,30.65,30.42,16,2,16,0.00
2013-2-14,34.4,29.1,21.3,23.4,19.4,12.4,80,67,54,30.59,30.39,23,5,23,0.00
2013-2-15,38.6,27.0,19.1,22.4,17.2,12.0,77,67,50,30.72,30.58,15,2,15,0.00
2013-2-16,46.6,29.5,15.6,18.8,13.5,8.0,76,54,29,30.70,30.23,12,2,12,0.00
2013-2-17,38.7,28.4,17.7,22.6,14.1,9.1,73,55,39,30.23,29.94,28,6,28,0.00
2013-2-18,32.4,22.0,10.8,15.1,7.7,2.0,79,56,33,30.40,30.21,17,2,17,0.00
2013-2-19,40.9,33.4,24.2,14.6,10.2,5.3,48,38,30,30.21,29.71,26,9,26,0.00
2013-2-20,37.6,29.6,24.2,26.2,19.6,10.4,92,67,43,29.85,29.65,15,4,15,0.00
2013-2-21,27.1,23.1,17.7,22.8,16.9,11.1,85,77,67,30.23,29.85,19,5,19,0.02
2013-2-22,26.3,19.6,13.9,19.8,11.9,7.6,81,72,58,30.37,30.22,22,3,22,0.02
2013-2-23,30.6,21.8,16.6,21.4,14.8,10.0,89,74,59,30.32,29.94,34,7,34,0.00
2013-2-24,29.4,19.7,11.0,14.3,11.3,2.1,80,70,51,30.52,30.15,19,5,19,0.01
2013-2-25,34.4,19.3,4.2,15.0,6.5,-2.9,79,58,37,30.56,30.28,18,3,18,0.01
2013-2-26,27.0,21.0,13.9,15.7,12.4,5.6,82,70,49,30.56,30.26,28,6,28,0.00
2013-2-27,31.7,17.1,4.9,12.6,4.8,-4.3,68,58,42,30.77,30.56,20,6,20,0.00
2013-2-28,37.1,24.1,8.6,19.6,10.8,0.5,77,58,39,30.78,30.71,17,2,17,0.00
2013-3-1,46.7,36.2,27.8,29.1,24.7,18.4,77,63,49,30.74,30.56,18,3,18,0.00
2013-3-2,54.7,37.0,23.8,26.0,21.4,15.9,76,55,32,30.63,30.22,16,2,16,0.00
2013-3-3,37.9,35.1,30.9,33.8,28.2,19.4,88,77,55,30.22,29.95,14,1,14,0.15
2013-3-4,34.0,27.7,16.0,30.8,14.1,2.6,88,58,32,30.44,29.97,21,5,21,0.00
2013-3-5,49.7,30.2,11.6,19.2,8.9,-1.0,62,43,23,30.54,30.19,20,5,20,0.00
2013-3-6,48.1,40.7,32.4,30.0,20.9,14.8,77,46,33,30.19,29.82,32,9,32,0.00
2013-3-7,48.2,36.8,30.2,30.0,27.2,21.5,86,70,35,30.01,29.91,17,2,17,0.00
2013-3-8,42.6,34.7,30.6,33.0,29.2,27.1,89,81,56,29.97,29.77,12,0,12,0.04
2013-3-9,38.0,33.2,24.9,30.3,24.2,14.8,89,70,49,30.34,29.75,22,5,22,0.11
2013-3-10,43.7,30.9,18.2,24.1,16.9,10.6,77,57,34,30.52,30.34,22,4,22,0.00
2013-3-11,43.6,35.0,24.5,27.1,21.4,14.4,72,58,43,30.47,30.29,25,5,25,0.00
2013-3-12,51.3,40.6,35.0,32.2,28.3,24.4,82,62,42,30.37,30.29,14,2,14,0.00
2013-3-13,58.0,43.4,31.4,32.0,26.7,22.2,76,54,31,30.47,30.33,15,4,15,0.00
2013-3-14,66.2,48.3,35.5,32.8,26.0,21.5,61,44,22,30.37,30.17,19,5,19,0.00
2013-3-15,60.9,48.7,36.7,30.3,25.2,20.7,64,42,23,30.18,29.97,24,5,24,0.00
2013-3-16,50.2,41.6,32.9,28.2,21.5,14.6,68,46,27,29.97,29.85,26,5,26,0.00
2013-3-17,38.6,33.4,26.7,30.8,22.6,13.1,84,65,43,30.10,29.80,33,7,33,0.07
2013-3-18,42.2,32.8,25.1,20.1,16.7,13.4,74,52,35,30.25,30.11,31,6,31,0.00
2013-3-19,47.9,35.2,22.1,17.4,7.6,-4.6,58,34,13,30.36,30.21,19,3,19,0.00
2013-3-20,44.0,38.1,29.2,35.1,24.9,8.6,85,61,38,30.29,29.86,24,5,24,0.08
2013-3-21,39.9,31.2,21.8,32.2,20.4,6.2,86,65,37,30.10,29.75,40,10,40,0.08
2013-3-22,26.1,21.3,18.0,19.5,12.2,4.4,86,68,50,30.22,30.06,33,6,33,0.01
2013-3-23,27.6,20.7,16.0,16.2,11.9,7.3,82,69,45,30.45,30.22,25,6,25,0.00
2013-3-24,29.4,19.1,9.1,15.1,7.1,-0.4,70,60,45,30.49,30.43,20,8,20,0.00
2013-3-25,43.4,27.2,10.1,20.8,9.8,-2.5,61,48,33,30.51,30.28,21,6,21,0.00
2013-3-26,51.1,39.4,28.8,28.4,21.9,18.6,77,52,29,30.28,29.94,27,7,27,0.00
2013-3-27,56.5,41.6,29.0,27.3,23.1,20.0,77,51,26,30.11,30.02,18,6,18,0.00
2013-3-28,59.0,46.1,32.4,28.8,24.4,20.1,65,44,26,30.09,29.99,26,5,26,0.00
2013-3-29,57.7,46.4,36.0,32.8,28.3,24.4,73,51,29,30.20,30.07,26,6,26,0.01
2013-3-30,56.5,44.9,33.6,31.9,25.8,22.4,64,48,27,30.22,30.13,23,7,23,0.00
2013-3-31,62.4,46.3,29.2,24.6,20.0,13.8,62,38,18,30.18,29.95,20,6,20,0.00
2013-4-1,46.6,40.7,33.3,37.5,32.1,22.5,87,72,41,30.00,29.86,29,3,29,0.18
2013-4-2,51.4,39.7,32.5,35.0,30.3,27.7,89,71,41,30.16,29.99,24,5,24,0.74
2013-4-3,58.2,44.5,31.9,35.6,28.5,24.2,79,56,29,30.25,30.14,25,6,25,0.00
2013-4-4,61.6,48.9,35.2,33.5,28.2,23.6,64,46,30,30.19,29.92,26,8,26,0.00
2013-4-5,53.5,45.3,35.9,38.0,31.1,25.0,86,59,37,30.01,29.82,29,7,29,0.27
2013-4-6,50.8,41.4,33.6,35.4,28.0,24.3,78,60,39,30.09,29.99,29,5,29,0.00
2013-4-7,52.9,42.8,31.9,34.2,28.3,23.5,79,58,35,30.01,29.63,28,5,28,0.00
2013-4-8,47.6,36.6,23.7,35.5,29.1,20.1,89,76,38,29.63,29.35,26,5,26,0.19
2013-4-9,29.5,22.3,17.2,19.9,13.8,10.1,92,70,48,30.38,29.58,33,7,33,0.05
2013-4-10,42.9,29.3,13.0,26.2,17.4,7.2,78,62,46,30.46,30.16,27,4,27,0.07
2013-4-11,46.7,38.0,32.7,37.4,29.9,25.9,88,74,50,30.17,29.97,20,3,20,0.11
2013-4-12,52.7,40.9,29.1,29.5,24.8,17.5,79,55,28,30.09,29.92,18,3,18,0.00
2013-4-13,47.8,38.9,31.5,35.0,27.5,15.8,86,65,39,29.94,29.56,33,7,33,0.27
2013-4-14,38.6,30.6,20.2,22.1,10.8,4.5,79,44,28,29.97,29.78,26,8,26,0.00
2013-4-15,41.2,32.3,26.5,31.3,24.2,16.6,89,73,42,29.83,29.73,17,2,17,0.17
2013-4-16,33.7,29.7,24.6,25.1,20.2,14.3,86,68,49,30.06,29.72,25,4,25,0.05
2013-4-17,34.7,26.5,18.9,21.7,13.0,9.1,72,57,40,30.37,30.06,28,6,28,0.00
2013-4-18,39.2,29.3,18.1,14.8,10.9,4.9,68,47,30,30.49,30.36,27,6,27,0.00
2013-4-19,44.4,34.5,23.9,31.1,21.0,11.9,77,58,39,30.48,30.13,19,4,19,0.00
2013-4-20,45.0,37.9,33.3,35.1,31.0,25.8,88,77,55,30.22,30.08,29,5,29,0.21
2013-4-21,53.3,41.9,29.0,32.6,25.9,22.9,79,56,34,30.25,30.03,26,5,26,0.01
2013-4-22,43.3,38.1,31.3,32.9,25.6,13.6,79,62,32,30.16,29.98,27,7,27,0.02
2013-4-23,43.7,32.6,20.5,21.6,13.1,-0.3,78,49,20,30.33,30.16,22,6,22,0.00
2013-4-24,53.4,39.7,26.1,19.8,11.3,4.5,49,32,18,30.35,30.18,22,4,22,0.00
2013-4-25,56.6,43.1,27.4,24.0,14.7,6.2,52,33,18,30.21,29.99,22,6,23,0.00
2013-4-26,60.9,46.4,31.1,25.1,17.8,10.1,50,33,20,30.30,30.15,25,6,25,0.00
2013-4-27,63.4,50.0,35.2,30.4,22.7,16.7,53,36,22,30.31,30.11,31,8,31,0.00
2013-4-28,66.1,53.7,39.8,32.4,27.7,24.4,55,38,24,30.11,29.88,29,8,29,0.00
2013-4-29,65.0,51.8,35.1,33.6,28.3,23.8,65,42,27,29.92,29.66,27,6,27,0.00
2013-4-30,50.1,45.1,34.2,30.2,20.1,3.6,62,38,24,30.04,29.67,33,8,33,0.00
2013-5-1,41.6,33.4,22.8,22.4,12.1,2.1,60,42,27,30.69,30.04,27,7,27,0.00
2013-5-2,56.2,39.4,19.0,22.1,15.8,9.8,68,42,17,30.81,30.49,22,4,22,0.00
2013-5-3,63.3,48.0,31.4,21.1,16.0,2.1,55,30,10,30.49,29.97,23,5,23,0.00
2013-5-4,62.4,47.9,32.5,29.8,21.8,14.2,53,37,21,29.98,29.81,34,3,34,0.00
2013-5-5,65.8,50.2,34.2,34.7,29.9,26.2,75,49,24,29.94,29.81,30,3,30,0.00
2013-5-6,60.9,49.5,43.3,39.7,32.8,26.5,82,55,29,29.91,29.79,31,3,31,0.04
2013-5-7,59.0,46.8,37.1,38.4,34.3,27.8,85,64,35,29.98,29.86,36,5,36,0.01
2013-5-8,55.4,43.8,33.8,41.2,35.5,28.8,85,73,54,30.13,29.97,16,2,16,0.09
2013-5-9,66.5,50.3,34.2,42.1,33.4,27.1,85,57,24,30.17,30.03,21,3,21,0.00
2013-5-10,67.7,53.7,38.5,37.8,31.1,26.8,67,44,24,30.21,30.07,26,4,26,0.00
2013-5-11,69.2,56.8,42.4,35.7,31.5,28.1,60,40,24,30.25,30.13,28,5,28,0.00
2013-5-12,73.3,59.3,43.6,38.9,33.2,29.6,58,39,24,30.22,30.05,29,8,29,0.00
2013-5-13,79.2,64.0,47.7,41.6,34.8,31.7,54,36,18,30.10,29.85,21,6,21,0.00
2013-5-14,77.5,63.9,47.6,40.1,34.6,29.3,54,35,19,29.87,29.71,23,5,23,0.00
2013-5-15,75.3,61.2,49.2,40.2,34.6,30.6,55,38,20,29.81,29.65,27,7,27,0.00
2013-5-16,71.3,59.6,47.5,42.1,36.6,30.3,66,44,24,29.74,29.58,41,6,41,0.00
2013-5-17,62.9,51.2,42.9,41.7,36.4,31.0,79,58,31,29.88,29.66,34,5,34,0.02
2013-5-18,52.7,45.5,38.9,40.5,37.1,30.7,86,73,49,30.02,29.85,23,5,23,0.16
2013-5-19,53.9,42.2,34.8,39.7,34.7,30.0,87,76,47,30.13,30.00,29,4,29,0.49
2013-5-20,55.5,46.3,39.7,42.4,38.7,35.0,92,75,55,30.14,30.08,23,4,23,0.11
2013-5-21,64.3,52.5,37.9,41.4,34.5,27.2,83,55,26,30.13,29.74,21,4,21,0.00
2013-5-22,72.7,59.9,44.2,39.2,32.7,26.8,66,38,20,29.75,29.41,37,9,37,0.00
2013-5-23,68.1,51.1,32.5,39.3,31.4,26.4,80,51,24,29.90,29.56,33,6,33,0.00
2013-5-24,66.7,52.2,34.3,31.1,26.2,17.7,68,41,17,30.01,29.88,27,5,27,0.00
2013-5-25,70.2,57.3,41.4,36.8,27.9,22.2,56,34,18,29.89,29.74,39,6,39,0.00
2013-5-26,70.3,57.3,41.1,33.0,26.1,21.3,52,32,18,29.83,29.70,30,5,30,0.00
2013-5-27,66.2,55.7,45.8,36.9,32.2,26.7,57,41,25,29.83,29.70,24,3,24,0.00
2013-5-28,55.8,46.8,41.0,39.8,34.8,27.5,86,65,40,29.83,29.58,40,3,40,0.13
2013-5-29,54.4,45.5,39.6,39.8,35.1,28.6,87,69,39,29.90,29.80,30,4,30,0.14
2013-5-30,55.3,45.5,35.7,40.0,32.7,28.6,92,64,36,30.00,29.89,31,5,31,0.01
2013-5-31,59.4,46.7,32.8,32.8,27.3,22.7,78,50,29,30.25,30.00,23,6,23,0.00
2013-6-1,72.0,53.1,32.8,38.4,29.4,22.4,67,43,20,30.28,30.00,16,2,16,0.00
2013-6-2,77.8,62.7,43.1,38.8,31.8,27.1,55,34,16,30.00,29.56,25,5,28,0.00
2013-6-3,66.8,58.3,46.1,38.3,27.3,13.9,61,33,16,29.89,29.59,25,6,25,0.00
2013-6-4,67.9,56.0,39.7,36.2,29.4,19.9,55,37,24,29.99,29.88,29,6,29,0.00
2013-6-5,71.5,56.0,39.1,41.1,33.3,27.3,70,45,23,30.05,29.95,19,3,19,0.00
2013-6-6,76.0,60.1,42.4,43.0,36.2,31.8,68,43,23,30.01,29.89,21,4,21,0.00
2013-6-7,76.0,62.8,47.6,45.3,38.5,33.9,61,42,26,29.94,29.74,22,4,22,0.00
2013-6-8,74.0,62.9,45.0,46.8,39.3,32.4,75,44,27,29.91,29.75,23,5,23,0.00
2013-6-9,85.3,68.0,49.3,47.6,38.5,32.0,53,36,20,29.93,29.71,18,3,18,0.00
2013-6-10,83.0,70.5,53.5,48.4,36.6,25.8,55,31,15,29.76,29.55,35,5,35,0.00
2013-6-11,77.0,64.0,48.0,37.5,31.3,23.8,54,31,17,29.87,29.61,35,5,35,0.00
2013-6-12,78.0,64.8,47.4,46.6,35.7,29.0,55,35,20,29.91,29.76,26,5,26,0.00
2013-6-13,78.7,67.5,51.7,45.4,35.5,24.3,54,32,15,29.78,29.54,42,11,42,0.00
2013-6-14,70.0,55.9,39.6,40.0,32.4,27.0,63,43,27,29.99,29.78,17,3,17,0.00
2013-6-15,75.6,57.7,35.2,41.6,31.2,23.1,69,41,16,30.03,29.89,33,4,33,0.00
2013-6-16,78.5,63.4,44.5,39.3,28.9,21.5,48,29,14,29.95,29.83,32,5,32,0.00
2013-6-17,81.7,65.2,46.3,38.5,29.1,20.9,46,28,11,29.93,29.77,22,4,22,0.00
2013-6-18,80.0,65.6,48.5,39.1,29.0,22.2,39,27,14,29.80,29.54,30,5,30,0.00
2013-6-19,71.9,61.0,44.9,36.1,27.3,20.9,41,28,20,29.80,29.48,41,9,41,0.00
2013-6-20,69.7,53.1,33.7,35.9,26.7,20.3,59,38,20,29.94,29.80,29,3,29,0.00
2013-6-21,71.2,56.8,36.2,38.1,31.4,26.3,69,41,20,29.92,29.80,33,5,33,0.00
2013-6-22,67.3,55.1,38.9,39.4,33.4,27.7,75,46,30,29.95,29.83,20,4,20,0.00
2013-6-23,76.5,59.9,39.1,38.8,31.4,23.9,59,37,18,29.95,29.63,26,3,26,0.00
2013-6-24,74.1,61.9,51.1,42.8,36.1,31.0,63,40,24,29.75,29.56,31,7,31,0.00
2013-6-25,74.9,60.8,45.4,45.9,41.5,38.2,78,52,29,29.90,29.74,20,4,28,0.00
2013-6-26,83.3,69.6,52.6,50.7,44.1,37.9,58,42,26,29.94,29.86,19,2,19,0.00
2013-6-27,91.8,72.8,53.5,51.3,44.3,38.6,59,38,18,30.01,29.91,16,2,16,0.00
2013-6-28,90.3,74.5,55.9,54.2,44.0,37.3,58,36,17,30.01,29.83,28,2,28,0.00
2013-6-29,91.8,73.9,55.4,53.0,43.4,36.0,54,35,15,29.92,29.74,20,2,20,0.00
2013-6-30,89.1,75.6,58.4,53.3,43.6,33.3,58,34,16,29.86,29.72,23,4,23,0.00
2013-7-1,89.2,74.4,54.5,49.5,42.2,36.0,54,33,18,29.93,29.77,19,3,19,0.00
2013-7-2,88.5,74.0,57.1,52.1,42.8,34.9,55,34,20,29.90,29.73,33,2,33,0.00
2013-7-3,87.0,72.0,56.6,51.2,44.4,36.1,48,38,25,29.85,29.66,21,3,21,0.00
2013-7-4,81.5,69.9,57.2,57.8,52.4,44.8,87,56,35,29.84,29.62,27,3,27,0.45
2013-7-5,83.3,68.2,56.1,57.1,52.2,41.0,86,59,33,29.82,29.59,38,2,38,0.19
2013-7-6,83.6,63.6,54.4,54.0,49.6,44.1,82,63,27,29.87,29.67,18,2,18,0.12
2013-7-7,82.3,65.7,53.7,56.3,49.7,45.2,78,58,32,29.89,29.77,39,4,39,0.03
2013-7-8,82.5,66.4,53.4,52.7,47.4,41.8,79,54,27,29.94,29.86,24,2,24,0.00
2013-7-9,87.0,72.3,55.7,52.0,42.6,33.8,61,37,17,29.95,29.85,17,2,17,0.00
2013-7-10,89.0,71.4,52.2,48.3,38.6,30.3,59,33,13,29.93,29.74,18,2,18,0.00
2013-7-11,82.7,66.8,58.2,54.4,42.6,31.0,71,43,28,29.81,29.65,32,3,32,0.00
2013-7-12,75.6,62.7,56.2,56.7,52.0,49.0,86,70,40,29.90,29.79,13,1,13,0.13
2013-7-13,81.1,67.0,57.9,56.5,51.3,48.1,74,58,34,29.93,29.81,26,3,26,0.05
2013-7-14,84.3,68.5,49.9,57.4,47.8,39.9,83,52,22,30.00,29.83,13,1,13,0.00
2013-7-15,88.9,70.4,55.9,54.9,48.5,43.8,71,48,24,29.88,29.66,13,1,13,0.00
2013-7-16,85.3,68.7,61.6,56.9,51.7,47.8,77,56,32,29.91,29.71,23,2,23,0.04
2013-7-17,83.3,67.5,57.2,58.4,54.1,50.4,83,64,37,30.00,29.87,22,3,22,0.02
2013-7-18,85.7,70.0,53.3,58.9,50.2,43.0,81,54,23,30.02,29.85,16,2,21,0.00
2013-7-19,87.3,71.7,55.0,52.2,42.0,27.2,62,38,13,29.92,29.74,25,3,25,0.00
2013-7-20,86.6,69.9,54.3,53.1,38.4,32.8,51,34,16,29.83,29.68,18,3,18,0.00
2013-7-21,88.4,71.4,53.7,48.5,37.4,27.9,54,31,14,29.76,29.68,26,4,26,0.00
2013-7-22,87.8,71.8,54.4,51.1,37.4,29.2,46,30,14,29.82,29.74,25,5,25,0.00
2013-7-23,88.3,70.8,53.7,48.2,36.3,29.3,49,30,14,29.87,29.74,17,3,17,0.00
2013-7-24,77.8,66.0,54.5,51.9,41.6,28.4,58,41,28,29.89,29.82,25,3,25,0.00
2013-7-25,87.0,70.2,56.9,52.0,44.6,39.2,65,43,20,29.95,29.86,25,4,25,0.00
2013-7-26,87.5,71.0,55.4,52.2,41.2,35.0,59,36,17,30.01,29.85,23,4,23,0.00
2013-7-27,71.4,63.9,57.4,55.9,47.4,37.0,78,56,37,29.89,29.78,17,2,17,0.01
2013-7-28,75.5,62.5,51.7,55.3,49.1,43.8,81,63,38,29.86,29.75,24,2,24,0.01
2013-7-29,77.1,63.7,54.7,51.4,46.5,43.7,70,55,34,29.97,29.80,25,2,25,0.00
2013-7-30,82.0,67.9,53.9,51.2,44.6,36.6,71,46,24,30.05,29.96,24,4,24,0.00
2013-7-31,84.3,70.8,55.0,51.7,40.1,32.0,54,35,18,30.04,29.83,26,4,26,0.00
2013-8-1,81.6,69.3,54.0,53.0,46.1,36.7,55,44,32,29.85,29.64,26,7,28,0.00
2013-8-2,80.3,68.9,55.5,51.7,41.8,29.6,69,42,17,29.81,29.68,27,4,27,0.00
2013-8-3,81.5,68.8,52.3,49.0,37.3,30.4,54,33,16,29.89,29.79,26,4,26,0.00
2013-8-4,82.5,69.4,54.1,46.9,40.1,33.7,51,35,23,29.92,29.79,26,3,26,0.00
2013-8-5,83.2,70.1,57.1,49.4,41.0,35.4,50,36,23,29.89,29.74,29,3,29,0.05
2013-8-6,84.8,70.0,56.3,48.4,40.4,31.2,53,36,18,29.82,29.75,15,2,15,0.00
2013-8-7,82.8,65.1,50.2,46.3,39.6,33.5,57,41,21,29.86,29.75,33,4,33,0.03
2013-8-8,77.3,60.8,50.8,47.9,42.1,36.4,62,51,27,29.97,29.82,24,2,24,0.00
2013-8-9,80.0,61.7,48.1,46.0,40.5,33.4,65,47,23,30.00,29.89,33,2,33,0.00
2013-8-10,78.2,65.1,50.7,47.5,40.6,35.8,58,42,25,30.02,29.91,27,2,27,0.00
2013-8-11,80.5,67.5,52.8,47.1,40.1,35.0,58,38,22,29.99,29.83,18,2,18,0.00
2013-8-12,75.0,64.4,51.5,48.8,40.9,36.5,61,43,26,29.96,29.88,17,2,17,0.00
2013-8-13,80.9,66.3,50.3,46.4,38.6,31.2,63,39,17,30.02,29.90,26,3,26,0.00
2013-8-14,85.0,67.3,50.7,46.6,35.9,29.7,55,34,15,29.98,29.84,19,2,19,0.00
2013-8-15,88.8,70.2,52.4,44.3,33.8,26.6,47,29,12,29.95,29.82,18,3,18,0.00
2013-8-16,87.7,70.3,52.1,44.2,35.1,26.4,41,29,15,29.95,29.83,18,3,18,0.00
2013-8-17,88.5,67.1,55.9,51.5,43.8,35.8,78,46,20,30.00,29.79,37,4,37,0.16
2013-8-18,86.3,67.9,50.8,52.2,46.2,41.8,76,49,24,30.01,29.88,22,3,22,0.00
2013-8-19,87.3,68.3,56.6,52.0,46.1,41.7,60,46,23,29.94,29.82,27,4,27,0.00
2013-8-20,83.1,68.1,57.4,54.1,48.6,45.0,71,51,28,29.90,29.80,22,4,22,0.01
2013-8-21,82.2,68.1,54.6,53.3,47.6,42.5,76,51,27,29.96,29.84,21,3,21,0.00
2013-8-22,79.5,66.3,55.6,52.5,47.4,42.3,78,52,34,30.00,29.83,22,2,22,0.20
2013-8-23,67.3,60.0,56.2,54.8,51.6,49.2,83,74,58,29.95,29.81,19,2,19,0.09
2013-8-24,77.3,61.3,50.7,52.5,48.9,42.8,85,67,30,29.98,29.85,18,2,23,0.34
2013-8-25,73.8,64.2,52.9,51.1,48.1,44.3,76,57,40,30.02,29.91,24,4,24,0.00
2013-8-26,66.0,62.3,57.1,54.5,50.8,48.2,76,66,54,30.00,29.92,22,3,22,0.00
2013-8-27,71.3,62.6,56.4,54.6,51.2,48.4,76,67,53,29.99,29.92,18,2,18,0.00
2013-12-13,25.5,20.6,17.8,16.5,14.2,11.1,81,76,67,30.50,30.40,15,3,15,0.00
2013-12-14,29.1,20.2,11.8,20.3,14.5,7.3,89,78,68,30.71,30.50,9,0,9,0.00
2013-12-15,39.2,24.2,12.0,23.4,15.3,7.0,83,70,50,30.71,30.56,11,0,14,0.00
2013-12-16,45.9,30.2,21.4,24.3,16.1,11.5,70,56,36,30.56,30.45,14,1,16,0.00
2013-12-17,47.7,32.0,21.9,23.7,15.0,8.6,59,50,29,30.55,30.22,14,1,15,0.00
2013-12-18,52.2,37.8,27.1,32.5,21.2,14.2,81,53,29,30.22,29.57,25,2,25,0.00
2013-12-19,38.7,33.1,24.4,33.4,28.5,21.4,92,83,66,29.75,29.40,34,5,34,0.45
2013-12-20,27.0,21.7,14.7,22.1,16.3,9.3,92,80,61,29.91,29.75,16,2,16,0.01
2013-12-21,28.2,21.9,16.3,22.5,16.2,11.3,90,78,70,30.18,29.81,15,1,17,0.01
2013-12-22,29.1,24.3,17.8,25.7,20.0,13.5,88,83,77,30.42,30.18,5,0,5,0.00
2013-12-23,34.3,31.1,27.0,28.4,26.3,23.0,87,82,77,30.50,30.32,6,0,6,0.02
2013-12-24,35.4,28.8,14.2,29.8,18.3,4.8,86,65,44,30.53,30.21,22,4,23,0.01
2013-12-25,33.8,18.2,7.3,14.5,7.7,1.0,76,64,40,30.75,30.53,7,0,7,0.02
2013-12-26,38.7,23.4,12.9,16.5,11.1,4.6,72,60,37,30.72,30.56,7,0,8,0.02
2013-12-27,43.2,29.3,19.2,24.4,17.8,11.5,77,62,43,30.59,30.24,8,0,8,0.00
2013-12-28,40.8,29.0,19.8,23.0,18.2,13.6,78,64,43,30.26,30.03,19,3,19,0.00
2013-12-29,32.7,19.4,9.3,16.3,10.3,4.6,87,68,48,30.46,30.26,21,1,21,0.00
2013-12-30,38.5,25.5,12.6,18.1,13.5,4.3,73,61,39,30.53,30.36,14,0,14,0.00
2013-12-31,40.8,33.2,23.4,30.2,25.0,15.3,84,72,52,30.36,30.14,16,1,17,0.00
2014-1-1,39.6,32.2,21.7,26.4,20.1,10.2,72,61,45,30.37,30.14,16,2,17,0.00
2014-1-2,45.7,28.5,19.0,20.1,14.3,8.8,71,56,32,30.43,30.23,12,1,12,0.00